Time,TemperatureF,DewpointF,PressureIn,WindDirection,WindDirectionDegrees,WindSpeedMPH,WindSpeedGustMPH,Humidity,HourlyPrecipIn,Conditions,Clouds,dailyrainin,SoftwareType,DateUTC
2013-05-18 00:00:00,74.0,-99.9,30.04,South,170,17.0,-999.0,-999,-99.99,,,-99.99,,2013-05-18 05:00:00,
2013-05-18 00:52:00,74.0,-99.9,30.04,South,170,17.0,-999.0,-999,-99.99,,,-99.99,,2013-05-18 05:52:00,
2013-05-18 01:00:00,74.0,-99.9,30.04,South,170,16.0,-999.0,-999,-99.99,,,-99.99,,2013-05-18 06:00:00,
2013-05-18 01:52:00,74.0,-99.9,30.04,South,170,16.0,-999.0,-999,-99.99,,,-99.99,,2013-05-18 06:52:00,
2013-05-18 02:00:00,74.0,-99.9,30.01,South,180,18.0,-999.0,-999,-99.99,,,-99.99,,2013-05-18 07:00:00,
2013-05-18 02:53:00,74.0,-99.9,30.01,South,180,18.0,-999.0,-999,-99.99,,,-99.99,,2013-05-18 07:53:00,
2013-05-18 03:00:00,73.0,-99.9,30.01,South,180,17.0,-999.0,-999,-99.99,,,-99.99,,2013-05-18 08:00:00,
2013-05-18 03:52:00,73.0,-99.9,30.01,South,180,17.0,-999.0,-999,-99.99,,,-99.99,,2013-05-18 08:52:00,
2013-05-18 04:00:00,74.0,-99.9,30.00,South,180,16.0,-999.0,-999,-99.99,,,-99.99,,2013-05-18 09:00:00,
2013-05-18 04:53:00,74.0,-99.9,30.00,South,180,16.0,-999.0,-999,-99.99,,,-99.99,,2013-05-18 09:53:00,
2013-05-18 05:00:00,74.0,-99.9,30.01,South,190,17.0,-999.0,-999,-99.99,,,-99.99,,2013-05-18 10:00:00,
2013-05-18 05:53:00,74.0,-99.9,30.01,South,190,17.0,-999.0,-999,-99.99,,,-99.99,,2013-05-18 10:53:00,
2013-05-18 06:00:00,74.0,-99.9,30.02,South,190,13.0,-999.0,-999,-99.99,,,-99.99,,2013-05-18 11:00:00,
2013-05-18 06:52:00,74.0,-99.9,30.02,South,190,13.0,-999.0,-999,-99.99,,,-99.99,,2013-05-18 11:52:00,
2013-05-18 07:00:00,74.0,-99.9,30.04,South,180,10.0,-999.0,-999,-99.99,,,-99.99,,2013-05-18 12:00:00,
2013-05-18 07:52:00,74.0,-99.9,30.04,South,180,10.0,-999.0,-999,-99.99,,,-99.99,,2013-05-18 12:52:00,
2013-05-18 08:00:00,74.0,-99.9,30.04,South,180,11.0,-999.0,-999,-99.99,,,-99.99,,2013-05-18 13:00:00,
2013-05-18 08:53:00,74.0,-99.9,30.04,South,180,11.0,-999.0,-999,-99.99,,,-99.99,,2013-05-18 13:53:00,
2013-05-18 09:00:00,75.0,-99.9,30.07,South,170,10.0,-999.0,-999,-99.99,,,-99.99,,2013-05-18 14:00:00,
2013-05-18 09:54:00,75.0,-99.9,30.07,South,170,10.0,-999.0,-999,-99.99,,,-99.99,,2013-05-18 14:54:00,
2013-05-18 10:00:00,75.0,-99.9,30.08,SSE,160,13.0,-999.0,-999,-99.99,,,-99.99,,2013-05-18 15:00:00,
2013-05-18 10:54:00,75.0,-99.9,30.08,SSE,160,13.0,-999.0,-999,-99.99,,,-99.99,,2013-05-18 15:54:00,
2013-05-18 11:00:00,75.0,-99.9,30.07,SSE,160,14.0,-999.0,-999,-99.99,,,-99.99,,2013-05-18 16:00:00,
2013-05-18 11:53:00,75.0,-99.9,30.07,SSE,160,14.0,-999.0,-999,-99.99,,,-99.99,,2013-05-18 16:53:00,
2013-05-18 12:00:00,75.0,-99.9,30.07,South,170,14.0,-999.0,-999,-99.99,,,-99.99,,2013-05-18 17:00:00,
2013-05-18 12:42:00,75.0,-99.9,30.07,South,170,14.0,-999.0,-999,-99.99,,,-99.99,,2013-05-18 17:42:00,
2013-05-18 12:52:00,75.0,-99.9,30.07,South,170,14.0,-999.0,-999,-99.99,,,-99.99,,2013-05-18 17:52:00,
2013-05-18 13:00:00,75.0,-99.9,30.06,South,170,10.0,-999.0,-999,-99.99,,,-99.99,,2013-05-18 18:00:00,
2013-05-18 13:52:00,75.0,-99.9,30.06,South,170,10.0,-999.0,-999,-99.99,,,-99.99,,2013-05-18 18:52:00,
2013-05-18 14:00:00,76.0,-99.9,30.04,SSE,160,13.0,-999.0,-999,-99.99,,,-99.99,,2013-05-18 19:00:00,
2013-05-18 14:52:00,76.0,-99.9,30.04,SSE,160,13.0,-999.0,-999,-99.99,,,-99.99,,2013-05-18 19:52:00,
2013-05-18 15:00:00,76.0,-99.9,30.03,South,170,11.0,-999.0,-999,-99.99,,,-99.99,,2013-05-18 20:00:00,
2013-05-18 15:52:00,76.0,-99.9,30.03,South,170,11.0,-999.0,-999,-99.99,,,-99.99,,2013-05-18 20:52:00,
2013-05-18 16:00:00,76.0,-99.9,30.02,South,170,13.0,-999.0,-999,-99.99,,,-99.99,,2013-05-18 21:00:00,
2013-05-18 16:53:00,76.0,-99.9,30.02,South,170,13.0,-999.0,-999,-99.99,,,-99.99,,2013-05-18 21:53:00,
2013-05-18 18:00:00,76.0,-99.9,30.00,South,190,15.0,-999.0,-999,-99.99,,,-99.99,,2013-05-18 23:00:00,
2013-05-18 18:53:00,76.0,-99.9,30.00,South,190,15.0,-999.0,-999,-99.99,,,-99.99,,2013-05-18 23:53:00,
2013-05-18 19:00:00,76.0,-99.9,30.01,South,170,17.0,-999.0,-999,-99.99,,,-99.99,,2013-05-19 00:00:00,
2013-05-18 19:52:00,76.0,-99.9,30.01,South,170,17.0,-999.0,-999,-99.99,,,-99.99,,2013-05-19 00:52:00,
2013-05-18 20:00:00,76.0,-99.9,30.01,South,170,15.0,-999.0,-999,-99.99,,,-99.99,,2013-05-19 01:00:00,
2013-05-18 20:52:00,76.0,-99.9,30.01,South,170,15.0,-999.0,-999,-99.99,,,-99.99,,2013-05-19 01:52:00,
2013-05-18 21:00:00,75.0,-99.9,30.02,South,170,14.0,-999.0,-999,-99.99,,,-99.99,,2013-05-19 02:00:00,
2013-05-18 21:52:00,75.0,-99.9,30.02,South,170,14.0,-999.0,-999,-99.99,,,-99.99,,2013-05-19 02:52:00,
2013-05-18 22:00:00,75.0,-99.9,30.03,South,170,15.0,-999.0,-999,-99.99,,,-99.99,,2013-05-19 03:00:00,
2013-05-18 22:43:00,75.0,-99.9,30.03,South,170,15.0,-999.0,-999,-99.99,,,-99.99,,2013-05-19 03:43:00,
2013-05-18 22:53:00,75.0,-99.9,30.03,South,170,15.0,-999.0,-999,-99.99,,,-99.99,,2013-05-19 03:53:00,
2013-05-18 23:00:00,75.0,-99.9,30.01,South,170,16.0,-999.0,-999,-99.99,,,-99.99,,2013-05-19 04:00:00,
2013-05-18 23:53:00,75.0,-99.9,30.01,South,170,16.0,-999.0,-999,-99.99,,,-99.99,,2013-05-19 04:53:00,